SMAP (40376 NORAD) Tracking and Keplerian Element Data

This shows tracking and keplerian element data for the satellite.

Feedback or suggestion? Click here.




ElementValue
Catalog40376
NameSMAP
Epoch Orbit20230
Epoch Day318.80712216
Epoch Year2018
RAAN323.9178
Inclination98.1233
Eccentricity0.0001557
Argument of Perigee37.6638
Mean Anonmoly322.4651
Mean Motion14.63374369
Decay Rate4.2E-07
L11 40376U 15003A 18318.80712216 .00000042 00000-0 17206-4 0 9993
L22 40376 98.1233 323.9178 0001557 37.6638 322.4651 14.63374369202308

Live tracking and technical data element details for SMAP (NORAD 40376). SMAP can be tracked NOW for your location showing map with azimuth and elevation plus other details from your city location.

Track the satellite on the map from your city or location and see movement details for azimuth, elevation, latitude, longitude, range, height, and movement on the map or in text.







IsCatalogInMostPopularTable: catalog: 40376, numindb: 115
Update: records affected: 1



GetName: 40376 SMAP

Hit Count: updated at: Fri, 16 Nov 2018 02:54:05 GMT